Change the Weather History Date:

Tuesday, April 15, 2014

  Actual Average Record
Temperature  
Mean Temperature 47 °F 44 °F  
Max Temperature 62 °F 56 °F 78 °F (1962)
Min Temperature 31 °F 31 °F 1 °F (1945)
Degree Days  
Heating Degree Days 18 21  
Month to date heating degree days 342 349  
Since 1 July heating degree days 6973 6968  
Cooling Degree Days 0 0  
Month to date cooling degree days 0 0  
Year to date cooling degree days 0 0  
Moisture  
Dew Point 23 °F    
Average Humidity 50    
Maximum Humidity 82    
Minimum Humidity 17    
Precipitation  
Precipitation 0.00 in 0.06 in 0.68 in (1924)
Month to date precipitation 0.59 0.84  
Year to date precipitation 2.57 2.99  
Snow  
Snow 0.00 in 0.60 in - ()
Month to date snowfall 4.3 8.9  
Since 1 July snowfall 73.5 78.6  
Snow Depth T in    
Sea Level Pressure  
Sea Level Pressure 29.77 in    
Wind  
Wind Speed 11 mph (West)    
Max Wind Speed 43 mph    
Max Gust Speed 55 mph    
Visibility 10 miles    
Events      
T = Trace of Precipitation, MM = Missing Value Source: NWS Daily Summary

Daily Weather History Graph

Daily Weather History Graph

Search for Another Location

Airport or City:

Trip Planner

Search our weather history database for the weather conditions in past years. The results will help you decide how hot, cold, wet, or windy it might be!

Date:

Astronomy

Apr. 15, 2014 Rise Set
Actual Time 6:33 AM MDT 7:57 PM MDT
Civil Twilight 6:03 AM MDT 8:26 PM MDT
Nautical Twilight 5:28 AM MDT 9:02 PM MDT
Astronomical Twilight 4:50 AM MDT 9:40 PM MDT
Moon 8:42 PM MDT (4/15) 6:42 AM MDT (4/15)
Length of Visible Light 14h 22m
Length of Day
13h 24m
Full, 100% of the Moon is Illuminated
Apr 15
Full
Apr 22
Last Quarter
Apr 29
New
May 6
First Quarter
May 14
Full

Hourly Weather History & Observations

Time (MDT) Temp. Windchill Dew Point Humidity Pressure Visibility Wind Dir Wind Speed Gust Speed Precip Events Conditions
12:53 AM 34.0 °F 26.6 °F 19.9 °F 56% 30.06 in 10.0 mi NW 9.2 mph - N/A   Clear
1:53 AM 35.1 °F 28.6 °F 19.0 °F 52% 30.02 in 10.0 mi WNW 8.1 mph - N/A   Clear
2:53 AM 33.1 °F 28.7 °F 21.0 °F 61% 30.01 in 10.0 mi SE 4.6 mph - N/A   Clear
3:53 AM 30.9 °F 27.5 °F 21.9 °F 69% 29.97 in 10.0 mi SE 3.5 mph - N/A   Clear
4:53 AM 32.0 °F 28.7 °F 21.9 °F 66% 29.94 in 10.0 mi NNW 3.5 mph - N/A   Clear
5:53 AM 35.1 °F 28.6 °F 19.0 °F 52% 29.91 in 10.0 mi West 8.1 mph - N/A   Clear
6:53 AM 33.1 °F 30.0 °F 19.9 °F 59% 29.89 in 10.0 mi East 3.5 mph - N/A   Clear
7:53 AM 34.0 °F 28.8 °F 19.9 °F 56% 29.90 in 10.0 mi West 5.8 mph - N/A   Clear
8:53 AM 36.0 °F 32.1 °F 24.1 °F 62% 29.88 in 10.0 mi SE 4.6 mph - N/A   Clear
9:53 AM 45.0 °F 41.8 °F 19.0 °F 36% 29.84 in 10.0 mi North 5.8 mph - N/A   Clear
10:53 AM 48.0 °F - 21.9 °F 36% 29.80 in 10.0 mi South 3.5 mph - N/A   Clear
11:53 AM 54.0 °F - 23.0 °F 30% 29.73 in 10.0 mi ESE 8.1 mph - N/A   Clear
12:53 PM 57.9 °F - 18.0 °F 21% 29.69 in 10.0 mi West 13.8 mph 20.7 mph N/A   Clear
1:53 PM 59.0 °F - 19.9 °F 22% 29.65 in 10.0 mi WSW 15.0 mph 21.9 mph N/A   Clear
2:53 PM 61.0 °F - 16.0 °F 17% 29.60 in 10.0 mi WNW 4.6 mph - N/A   Scattered Clouds
3:33 PM 60.1 °F - 19.0 °F 20% 29.66 in 10.0 mi West 18.4 mph 26.5 mph N/A   Mostly Cloudy
3:53 PM 57.9 °F - 21.9 °F 25% 29.62 in 10.0 mi West 15.0 mph 29.9 mph N/A   Mostly Cloudy
4:53 PM 57.9 °F - 23.0 °F 26% 29.59 in 10.0 mi NW 15.0 mph 28.8 mph N/A   Clear
5:04 PM 57.0 °F - 25.0 °F 29% 29.66 in 10.0 mi North - - N/A   Clear
5:53 PM 53.1 °F - 19.9 °F 27% 29.56 in 10.0 mi West 31.1 mph 44.9 mph N/A   Clear
6:53 PM 48.9 °F - 26.1 °F 41% 29.61 in 10.0 mi WSW 26.5 mph 40.3 mph N/A   Clear
7:53 PM 46.0 °F 41.9 °F 25.0 °F 44% 29.60 in 10.0 mi ENE 8.1 mph - N/A   Clear
8:53 PM 42.1 °F 30.4 °F 28.0 °F 58% 29.63 in 10.0 mi NNW 35.7 mph 43.7 mph N/A   Mostly Cloudy
9:53 PM 41.0 °F 32.5 °F 28.0 °F 60% 29.69 in 10.0 mi West 17.3 mph - N/A   Mostly Cloudy
10:53 PM 39.0 °F 29.9 °F 28.0 °F 65% 29.74 in 10.0 mi NNE 17.3 mph 26.5 mph N/A   Mostly Cloudy
11:00 PM 37.0 °F 28.1 °F 30.0 °F 76% 29.79 in 10.0 mi ENE 15.0 mph 24.2 mph N/A   Scattered Clouds
11:53 PM 35.1 °F 29.3 °F 30.9 °F 85% 29.77 in 10.0 mi SW 6.9 mph - N/A   Mostly Cloudy